When you browse on this site, cookies collect data to enhance your experience and personalize the content and advertising you see.
Visit our Privacy Policy to learn more. By continuing to use the site, you agree to this use of cookies and data.
  • In Hungary
  • List of Countries
  • For 7 days
  • Water Temperature
  • Weather Map
  • News
  • Weather Widgets
  • user-avatar
    Login

    Hourly Weather Namatanai

    Today, 16 December, Monday

    Time Temperature Precipitation Wind Pressure Humidity
    00:00 +28°C° 0.1 mm 4 mps 753 mmHg 85%
    01:00 +28°C° 0.1 mm 3 mps 752 mmHg 86%
    02:00 +28°C° 0.3 mm 3 mps 752 mmHg 87%
    03:00 +28°C° 0.3 mm 3 mps 752 mmHg 88%
    04:00 +28°C° 0 mm 3 mps 751 mmHg 91%
    05:00 +28°C° 0.4 mm 3 mps 752 mmHg 89%
    06:00 +29°C° 0.4 mm 3 mps 752 mmHg 87%
    07:00 +29°C° 0.4 mm 2 mps 753 mmHg 85%
    08:00 +30°C° 0.3 mm 2 mps 753 mmHg 79%
    09:00 +31°C° 0.3 mm 2 mps 753 mmHg 73%
    10:00 +34°C° 0.3 mm 2 mps 753 mmHg 67%
    11:00 +34°C° 0.3 mm 3 mps 753 mmHg 64%
    12:00 +34°C° 0.3 mm 3 mps 752 mmHg 62%
    13:00 +35°C° 0.3 mm 3 mps 751 mmHg 59%
    14:00 +34°C° 0.5 mm 4 mps 751 mmHg 65%
    15:00 +33°C° 0.5 mm 4 mps 751 mmHg 70%
    16:00 +32°C° 0.5 mm 5 mps 751 mmHg 75%
    17:00 +30°C° 0.2 mm 5 mps 751 mmHg 78%
    18:00 +29°C° 0.2 mm 5 mps 752 mmHg 81%
    19:00 +28°C° 0.2 mm 5 mps 752 mmHg 83%
    20:00 +28°C° 0 mm 4 mps 752 mmHg 83%
    21:00 +28°C° 0 mm 4 mps 753 mmHg 83%
    22:00 +28°C° 0 mm 4 mps 753 mmHg 83%
    23:00 +28°C° 0 mm 4 mps 752 mmHg 83%

    Tomorrow, 17 December, Tuesday

    Time Temperature Precipitation Wind Pressure Humidity
    00:00 +28°C° 0 mm 4 mps 752 mmHg 83%
    01:00 +28°C° 0 mm 4 mps 752 mmHg 84%
    02:00 +28°C° 0.1 mm 3 mps 752 mmHg 85%
    03:00 +28°C° 0.1 mm 3 mps 752 mmHg 87%
    04:00 +28°C° 0.1 mm 3 mps 751 mmHg 88%
    05:00 +28°C° 0 mm 3 mps 752 mmHg 87%
    06:00 +28°C° 0 mm 4 mps 753 mmHg 85%
    07:00 +29°C° 0 mm 4 mps 753 mmHg 84%
    08:00 +30°C° 0 mm 3 mps 753 mmHg 78%
    09:00 +31°C° 0 mm 3 mps 753 mmHg 71%
    10:00 +33°C° 0 mm 3 mps 754 mmHg 65%
    11:00 +34°C° 0.1 mm 3 mps 753 mmHg 64%
    12:00 +34°C° 0.1 mm 3 mps 752 mmHg 63%
    13:00 +34°C° 0.1 mm 3 mps 752 mmHg 61%
    14:00 +34°C° 0 mm 3 mps 751 mmHg 64%
    15:00 +33°C° 0 mm 3 mps 751 mmHg 66%
    16:00 +33°C° 0 mm 3 mps 751 mmHg 68%
    17:00 +31°C° 0 mm 3 mps 751 mmHg 73%
    18:00 +30°C° 0 mm 3 mps 752 mmHg 78%
    19:00 +28°C° 0 mm 3 mps 752 mmHg 82%
    20:00 +28°C° 0 mm 3 mps 753 mmHg 82%
    21:00 +28°C° 0 mm 3 mps 753 mmHg 83%
    22:00 +28°C° 0 mm 3 mps 753 mmHg 83%
    23:00 +28°C° 0 mm 3 mps 753 mmHg 83%

    Day after tomorrow, 18 December, Wednesday

    Time Temperature Precipitation Wind Pressure Humidity
    00:00 +28°C° 0 mm 3 mps 752 mmHg 83%
    01:00 +27°C° 0 mm 3 mps 752 mmHg 83%
    02:00 +27°C° 0 mm 4 mps 752 mmHg 84%
    03:00 +28°C° 0 mm 4 mps 752 mmHg 85%
    04:00 +28°C° 0 mm 4 mps 751 mmHg 85%
    05:00 +28°C° 0 mm 4 mps 752 mmHg 84%
    06:00 +28°C° 0 mm 4 mps 752 mmHg 82%
    07:00 +29°C° 0 mm 4 mps 752 mmHg 80%
    08:00 +30°C° 0 mm 4 mps 753 mmHg 75%
    09:00 +32°C° 0 mm 4 mps 753 mmHg 70%
    10:00 +33°C° 0 mm 4 mps 753 mmHg 65%
    11:00 +34°C° 0 mm 4 mps 753 mmHg 61%
    12:00 +34°C° 0 mm 4 mps 752 mmHg 57%
    13:00 +35°C° 0 mm 4 mps 751 mmHg 54%
    14:00 +34°C° 0 mm 3 mps 751 mmHg 55%
    15:00 +34°C° 0 mm 3 mps 751 mmHg 57%
    16:00 +33°C° 0 mm 3 mps 751 mmHg 59%
    17:00 +31°C° 0 mm 3 mps 751 mmHg 65%
    18:00 +30°C° 0 mm 3 mps 752 mmHg 72%
    19:00 +28°C° 0 mm 3 mps 752 mmHg 78%
    20:00 +28°C° 0 mm 3 mps 753 mmHg 80%
    21:00 +28°C° 0 mm 4 mps 753 mmHg 82%
    22:00 +28°C° 0 mm 4 mps 754 mmHg 84%
    23:00 +28°C° 0 mm 4 mps 753 mmHg 85%

    19 December, Thursday

    Time Temperature Precipitation Wind Pressure Humidity
    00:00 +28°C° 0 mm 4 mps 753 mmHg 86%
    01:00 +28°C° 0 mm 4 mps 752 mmHg 87%
    02:00 +28°C° 0 mm 3 mps 752 mmHg 88%
    03:00 +28°C° 0 mm 3 mps 752 mmHg 89%
    04:00 +27°C° 0 mm 3 mps 752 mmHg 89%
    05:00 +28°C° 0 mm 3 mps 752 mmHg 87%
    06:00 +28°C° 0 mm 3 mps 753 mmHg 85%
    07:00 +29°C° 0 mm 3 mps 753 mmHg 82%
    08:00 +30°C° 0 mm 3 mps 753 mmHg 76%
    09:00 +33°C° 0 mm 3 mps 754 mmHg 71%
    10:00 +34°C° 0 mm 3 mps 754 mmHg 65%
    11:00 +34°C° 0.1 mm 3 mps 753 mmHg 66%
    12:00 +34°C° 0.1 mm 2 mps 753 mmHg 67%
    13:00 +32°C° 0.1 mm 2 mps 752 mmHg 68%
    14:00 +32°C° 0 mm 2 mps 752 mmHg 68%
    15:00 +32°C° 0 mm 2 mps 752 mmHg 68%
    16:00 +31°C° 0 mm 2 mps 751 mmHg 69%
    17:00 +31°C° 0 mm 2 mps 752 mmHg 73%
    18:00 +30°C° 0 mm 2 mps 752 mmHg 77%
    19:00 +29°C° 0 mm 1 mps 753 mmHg 81%
    20:00 +29°C° 0.1 mm 1 mps 753 mmHg 83%
    21:00 +28°C° 0.1 mm 1 mps 754 mmHg 84%
    22:00 +28°C° 0.1 mm 1 mps 754 mmHg 85%
    23:00 +28°C° 0.3 mm 1 mps 754 mmHg 86%

    20 December, Friday

    Time Temperature Precipitation Wind Pressure Humidity
    00:00 +27°C° 0.3 mm 1 mps 753 mmHg 87%
    01:00 +27°C° 0.3 mm 1 mps 753 mmHg 89%
    02:00 +27°C° 0.5 mm 1 mps 753 mmHg 89%
    03:00 +27°C° 0.5 mm 1 mps 752 mmHg 89%
    04:00 +27°C° 0.5 mm 2 mps 752 mmHg 88%
    05:00 +28°C° 0 mm 2 mps 753 mmHg 86%
    06:00 +28°C° 0 mm 1 mps 753 mmHg 84%
    07:00 +29°C° 0 mm 1 mps 754 mmHg 82%
    08:00 +30°C° 0.1 mm 1 mps 754 mmHg 75%
    09:00 +32°C° 0.1 mm 1 mps 754 mmHg 67%
    10:00 +34°C° 0.1 mm 1 mps 754 mmHg 59%
    11:00 +33°C° 0.9 mm 1 mps 753 mmHg 65%
    12:00 +32°C° 0.9 mm 1 mps 753 mmHg 71%
    13:00 +32°C° 0.9 mm 1 mps 752 mmHg 77%
    14:00 +31°C° 1 mm 1 mps 752 mmHg 78%
    15:00 +31°C° 1 mm 1 mps 752 mmHg 79%
    16:00 +30°C° 1 mm 1 mps 751 mmHg 80%
    17:00 +30°C° 0.9 mm 1 mps 752 mmHg 82%
    18:00 +27°C° 0.9 mm 0 mps 752 mmHg 84%
    19:00 +26°C° 0.9 mm 0 mps 753 mmHg 86%
    20:00 +26°C° 0.9 mm 0 mps 753 mmHg 86%
    21:00 +26°C° 0.9 mm 0 mps 753 mmHg 86%
    22:00 +26°C° 0.9 mm 0 mps 754 mmHg 86%
    23:00 +25°C° 0.6 mm 0 mps 753 mmHg 86%

    21 December, Saturday

    Time Temperature Precipitation Wind Pressure Humidity
    00:00 +25°C° 0.6 mm 0 mps 753 mmHg 86%
    01:00 +27°C° 0.6 mm 1 mps 753 mmHg 86%
    02:00 +27°C° 0.5 mm 1 mps 752 mmHg 86%
    03:00 +27°C° 0.5 mm 1 mps 752 mmHg 86%
    04:00 +27°C° 0.5 mm 1 mps 752 mmHg 86%
    05:00 +28°C° 0.2 mm 1 mps 753 mmHg 85%
    06:00 +28°C° 0.2 mm 1 mps 753 mmHg 84%
    07:00 +29°C° 0.2 mm 1 mps 753 mmHg 83%
    08:00 +30°C° 0 mm 1 mps 753 mmHg 76%
    09:00 +32°C° 0 mm 1 mps 753 mmHg 69%
    10:00 +33°C° 0 mm 1 mps 753 mmHg 63%
    11:00 +33°C° 0.4 mm 1 mps 753 mmHg 66%
    12:00 +32°C° 0.4 mm 1 mps 752 mmHg 70%
    13:00 +32°C° 0.4 mm 1 mps 752 mmHg 74%
    14:00 +31°C° 1.3 mm 1 mps 752 mmHg 75%
    15:00 +31°C° 1.3 mm 1 mps 751 mmHg 76%
    16:00 +30°C° 1.3 mm 2 mps 751 mmHg 77%
    17:00 +30°C° 1.8 mm 2 mps 752 mmHg 79%
    18:00 +29°C° 1.8 mm 1 mps 752 mmHg 82%
    19:00 +28°C° 1.8 mm 1 mps 753 mmHg 84%
    20:00 +28°C° 1.2 mm 1 mps 753 mmHg 84%
    21:00 +28°C° 1.2 mm 1 mps 753 mmHg 84%
    22:00 +28°C° 1.2 mm 1 mps 753 mmHg 85%
    23:00 +28°C° 0.4 mm 1 mps 753 mmHg 85%
    Show more